Lehigh Valley, PA

11:21 PM EDT on August 30, 2016 (GMT -0400)
Lehigh Valley International

Weather History for KABE - November, 2013

Change the Weather History Date:

Saturday, November 30, 2013

  Actual Average Record
Temperature  
Mean Temperature 26 °F 38 °F  
Max Temperature 36 °F 46 °F 69 °F (1933)
Min Temperature 16 °F 29 °F 10 °F (1929)
Degree Days  
Heating Degree Days 39 28  
Month to date heating degree days 727 669  
Since 1 July heating degree days 1159 1180  
Cooling Degree Days 0 0  
Month to date cooling degree days 0 0  
Year to date cooling degree days 927 757  
Moisture  
Dew Point 17 °F    
Average Humidity 63    
Maximum Humidity 80    
Minimum Humidity 45    
Precipitation  
Precipitation 0.00 in 0.13 in 0.86 in (1923)
Month to date precipitation 2.58 3.50  
Year to date precipitation 41.91 41.77  
Snow  
Snow 0.00 in 0.10 in 5.40 in (1967)
Month to date snowfall T 0.7  
Since 1 July snowfall T 0.7  
Since 1 September snowfall T 0.7  
Snow Depth 0.00 in    
Sea Level Pressure  
Sea Level Pressure 30.62 in    
Wind  
Wind Speed 3 mph (ESE)    
Max Wind Speed 10 mph    
Max Gust Speed 15 mph    
Visibility 10 miles    
Events      
T = Trace of Precipitation, MM = Missing Value Source: NWS Daily Summary

Daily Weather History Graph

Daily Weather History Graph

Search for Another Location

Airport or City:

Trip Planner

Search our weather history database for the weather conditions in past years. The results will help you decide how hot, cold, wet, or windy it might be!

Date:

Astronomy

Nov. 30, 2013 Rise Set
Actual Time 7:05 AM EST 4:35 PM EST
Civil Twilight 6:35 AM EST 5:05 PM EST
Nautical Twilight 6:01 AM EST 5:39 PM EST
Astronomical Twilight 5:28 AM EST 6:12 PM EST
Moon 4:13 AM EST (11/30) 2:58 PM EST (11/30)
Length of Visible Light 10h 30m
Length of Day
9h 29m
Waning Crescent, 7% of the Moon is Illuminated
Nov 30
Waning Crescent
Dec 2
New
Dec 9
First Quarter
Dec 17
Full
Dec 25
Last Quarter

Hourly Weather History & Observations

Time (EST) Temp. Windchill Dew Point Humidity Pressure Visibility Wind Dir Wind Speed Gust Speed Precip Events Conditions
12:51 AM 23.0 °F - 12.0 °F 63% 30.74 in 10.0 mi Calm Calm - N/A   Clear
1:51 AM 21.0 °F - 12.9 °F 71% 30.75 in 10.0 mi Calm Calm - N/A   Clear
2:51 AM 19.0 °F - 12.9 °F 77% 30.75 in 10.0 mi Calm Calm - N/A   Clear
3:51 AM 18.0 °F - 12.0 °F 78% 30.74 in 10.0 mi Calm Calm - N/A   Clear
4:51 AM 19.9 °F - 12.0 °F 71% 30.74 in 10.0 mi Calm Calm - N/A   Clear
5:51 AM 19.0 °F - 10.9 °F 71% 30.75 in 10.0 mi Calm Calm - N/A   Clear
6:51 AM 18.0 °F - 12.0 °F 78% 30.75 in 10.0 mi Calm Calm - N/A   Clear
7:51 AM 21.0 °F - 12.9 °F 71% 30.76 in 10.0 mi Calm Calm - N/A   Clear
8:51 AM 24.1 °F 15.2 °F 14.0 °F 65% 30.75 in 10.0 mi ENE 8.1 mph - N/A   Clear
9:51 AM 26.1 °F 19.4 °F 12.9 °F 58% 30.74 in 10.0 mi ENE 5.8 mph - N/A   Clear
10:51 AM 30.0 °F 23.2 °F 12.9 °F 49% 30.71 in 10.0 mi East 6.9 mph - N/A   Clear
11:51 AM 32.0 °F 27.5 °F 14.0 °F 48% 30.68 in 10.0 mi East 4.6 mph - N/A   Clear
12:46 PM 33.8 °F - 15.8 °F 48% 30.62 in 10.0 mi Calm Calm - N/A   Mostly Cloudy
12:51 PM 33.1 °F 28.7 °F 16.0 °F 50% 30.64 in 10.0 mi Variable 4.6 mph - N/A   Mostly Cloudy
1:51 PM 36.0 °F 30.3 °F 19.9 °F 52% 30.60 in 10.0 mi SE 6.9 mph - N/A   Scattered Clouds
2:51 PM 36.0 °F 29.6 °F 21.0 °F 55% 30.58 in 10.0 mi SE 8.1 mph - N/A   Clear
3:51 PM 35.1 °F 32.2 °F 21.0 °F 57% 30.56 in 10.0 mi SSE 3.5 mph - N/A   Clear
4:51 PM 34.0 °F 31.0 °F 21.9 °F 61% 30.55 in 10.0 mi SE 3.5 mph - N/A   Clear
5:51 PM 33.1 °F 26.1 °F 21.9 °F 64% 30.52 in 10.0 mi East 8.1 mph - N/A   Clear
6:51 PM 33.1 °F 27.7 °F 24.1 °F 70% 30.51 in 10.0 mi ESE 5.8 mph - N/A   Clear
7:51 PM 33.1 °F - 24.1 °F 70% 30.48 in 10.0 mi Calm Calm - N/A   Clear
8:51 PM 33.1 °F - 24.1 °F 70% 30.47 in 10.0 mi Calm Calm - N/A   Partly Cloudy
9:51 PM 30.0 °F - 24.1 °F 79% 30.45 in 10.0 mi Calm Calm - N/A   Partly Cloudy
10:05 PM 30.2 °F - 24.8 °F 80% 30.42 in 10.0 mi Calm Calm - N/A   Mostly Cloudy
10:51 PM 30.0 °F - 24.1 °F 79% 30.42 in 10.0 mi Calm Calm - N/A   Partly Cloudy
11:51 PM 27.0 °F - 24.1 °F 89% 30.39 in 10.0 mi Calm Calm - N/A   Mostly Cloudy